Home > Weather > Winsen (Luhe) > Past weeks

Flag for Germany Past Weather in Winsen (Luhe), Lower Saxony, Germany — Yesterday and Last 2 Weeks

Now
72 °F

Passing clouds.


Feels Like: 72 °F
Forecast: 59 / 82 °F
Wind: 5 mph from Northwest

Location: Hamburg-Finkenwerder

Current Time: Aug 23, 2016 at 11:11:16 PM

Latest Report: Aug 23, 2016 at 7:50 PM


Visibility: N/A

Pressure: 30.27 "Hg

Humidity: 78%

Dew Point: 64 °F

Location of Winsen (Luhe)Location

Past Weather in Winsen (Luhe) — Graph

°F

Winsen (Luhe) Temperature Yesterday

Maximum temperature yesterday: 70 °F (at 12:20 PM)
Minimum temperature yesterday: 59 °F (at 5:50 AM)
Average temperature yesterday: 64 °F

High & Low Weather Summary for the Past Weeks

 TemperatureHumidityPressure
High75 °F (Aug 19, 4:20 PM)100% (Aug 9, 5:50 AM)30.30 "Hg (Aug 9, 5:50 AM)
Low48 °F (Aug 11, 5:50 AM)44% (Aug 19, 4:20 PM)29.80 "Hg (Aug 19, 6:20 PM)
Average62 °F82%30.06 "Hg
* Reported Aug 8 7:50 PM — Aug 23 7:50 PM, Winsen (Luhe), Weather by CustomWeather, © 2016

Note: Actual official high and low records may vary slightly from our data, if they occured in-between our weather recording intervals... More about our weather records

Advertising

Winsen (Luhe) Weather History for the Previous 24 Hours

Scroll right to see more
 ConditionsComfort  
Time TempWeatherWind HumidityBarometerVisibility
7:50 PM
Tue, Aug 23
72 °FPassing clouds.5 mph78%30.27 "HgN/A
7:20 PM72 °FPassing clouds.5 mph88%30.27 "HgN/A
6:50 PM73 °FPassing clouds.7 mph83%30.30 "HgN/A
6:20 PM75 °FPassing clouds.5 mph78%30.30 "HgN/A
5:50 PM75 °FScattered clouds.6 mph74%30.30 "HgN/A
5:20 PM75 °FScattered clouds.7 mph69%30.30 "HgN/A
4:50 PM75 °FScattered clouds.5 mph78%30.30 "HgN/A
4:20 PM73 °FScattered clouds.5 mph78%30.30 "HgN/A
3:50 PM73 °FScattered clouds.7 mph83%30.30 "HgN/A
3:20 PM72 °FScattered clouds.3 mph94%30.30 "HgN/A
2:50 PM70 °FBroken clouds.5 mph100%30.30 "HgN/A
2:20 PM70 °FBroken clouds.7 mph100%30.30 "HgN/A
1:50 PM68 °FPartly sunny.8 mph100%30.30 "Hg6 mi
1:20 PM68 °FPartly sunny.7 mph100%30.30 "Hg6 mi
12:50 PM68 °FPartly sunny.7 mph100%30.30 "Hg6 mi
12:20 PM68 °FPartly sunny.7 mph100%30.30 "Hg6 mi
11:50 AM66 °FBroken clouds.7 mph100%30.30 "Hg5 mi
11:20 AM66 °FBroken clouds.6 mph100%30.30 "Hg6 mi
10:50 AM66 °FBroken clouds.7 mph100%30.30 "Hg5 mi
10:20 AM66 °FPartly sunny.7 mph100%30.30 "Hg6 mi
9:50 AM66 °FPartly sunny.8 mph100%30.30 "Hg5 mi
9:20 AM64 °FBroken clouds.7 mph100%30.30 "Hg5 mi
8:50 AM64 °FPartly sunny.7 mph100%30.30 "Hg4 mi
8:20 AM64 °FPartly sunny.7 mph100%30.27 "Hg4 mi
7:50 AM63 °FDrizzle. Fog.6 mph100%30.27 "Hg3 mi
7:20 AM63 °FDrizzle. Fog.7 mph100%30.27 "Hg3 mi
6:50 AM63 °FFog.8 mph100%30.24 "Hg3 mi
6:20 AM63 °FLow clouds.8 mph100%30.24 "Hg4 mi
5:50 AM63 °FPassing clouds.9 mph100%30.24 "Hg5 mi
Weather by CustomWeather, © 2016

See weather overviewHow to use our weather pages